Location: Lecco
(45.8566°N, 9.3977°E)
Time: 04:50:20
(UTC+02:00)

Transit 4A - Pass Details

Date: 18 August 2020
Orbit: 863 x 982 km, 66.8° (Epoch: 23 September)

Event Time Altitude Azimuth Distance (km) Brightness Sun altitude
Rises 15:53:02 0° 329° (NNW) 3,646 11.0 44.7°
Reaches altitude 10° 15:55:58 10° 341° (NNW) 2,713 10.3 44.3°
Maximum altitude 16:01:25 29° 40° (NE) 1,713 9.2 43.5°
Drops below altitude 10° 16:06:54 10° 99° (E) 2,734 10.1 42.7°
Sets 16:09:51 0° 110° (ESE) 3,679 10.7 42.2°
